N78AL EIDW-EDDF

Flight info

Callsign N78AL
Flight time N/A
Altitude 39000
Route ENDEQ1E ENDEQ Q36 ALAVA Z195 MALUD UL975 WAL M16 DOLAS DCT NAVPI DCT NOLRU DCT DIXAT DIXAT1A
Aircraft CL60/M-SADE3FGHIJ3J4J7P2RWXY/HB1D1

Departure

Time 2026-05-04 15:30
Airport Dublin Airport (EIDW)

Arrival

Time N/A
Airport Frankfurt Main Airport (EDDF)
Time Latitude Longitude Altitude Speed Heading
2026-05-04 15:05 53.43118 -6.24482 216 ft 0 kts 186°
2026-05-04 15:16 53.43121 -6.24482 216 ft 2 kts 186°
2026-05-04 15:17 53.43136 -6.24479 215 ft 2 kts 186°
2026-05-04 15:17 53.43166 -6.24474 215 ft 2 kts 186°
2026-05-04 15:17 53.43180 -6.24471 215 ft 1 kts 187°
2026-05-04 15:18 53.43188 -6.24463 215 ft 1 kts 245°
2026-05-04 15:18 53.43189 -6.24452 215 ft 0 kts 276°
2026-05-04 15:18 53.43189 -6.24451 215 ft 0 kts 276°
2026-05-04 15:21 53.43190 -6.24476 214 ft 8 kts 276°
2026-05-04 15:21 53.43195 -6.24554 212 ft 1 kts 276°
2026-05-04 15:21 53.43202 -6.24668 210 ft 8 kts 275°
2026-05-04 15:22 53.43205 -6.24735 209 ft 11 kts 275°
2026-05-04 15:22 53.43216 -6.24926 207 ft 17 kts 275°
2026-05-04 15:22 53.43233 -6.25241 209 ft 7 kts 277°
2026-05-04 15:23 53.43233 -6.25289 210 ft 1 kts 261°
2026-05-04 15:23 53.43222 -6.25346 210 ft 9 kts 249°
2026-05-04 15:23 53.43200 -6.25437 210 ft 10 kts 248°
2026-05-04 15:23 53.43166 -6.25576 212 ft 9 kts 248°
2026-05-04 15:24 53.43071 -6.25737 212 ft 14 kts 169°
2026-05-04 15:24 53.42814 -6.25558 210 ft 18 kts 157°
2026-05-04 15:25 53.42705 -6.25490 208 ft 18 kts 171°
2026-05-04 15:25 53.42604 -6.25587 209 ft 20 kts 224°
2026-05-04 15:25 53.42509 -6.25746 210 ft 16 kts 227°
2026-05-04 15:26 53.42348 -6.26023 214 ft 8 kts 227°
2026-05-04 15:26 53.42282 -6.26181 214 ft 18 kts 251°
2026-05-04 15:26 53.42287 -6.26597 222 ft 20 kts 274°
2026-05-04 15:27 53.42300 -6.26841 226 ft 20 kts 275°
2026-05-04 15:27 53.42331 -6.27366 230 ft 23 kts 275°
2026-05-04 15:28 53.42358 -6.27879 234 ft 16 kts 276°
2026-05-04 15:28 53.42368 -6.28060 235 ft 14 kts 274°
2026-05-04 15:28 53.42313 -6.28324 236 ft 14 kts 173°
2026-05-04 15:29 53.42229 -6.28202 235 ft 18 kts 120°
2026-05-04 15:30 53.41991 -6.24510 610 ft 160 kts 94°
2026-05-04 15:30 53.41612 -6.18286 1863 ft 184 kts 92°
2026-05-04 15:31 53.41385 -6.13861 2415 ft 208 kts 92°
2026-05-04 15:31 53.41254 -6.11246 2900 ft 233 kts 92°
2026-05-04 15:32 53.40922 -6.01763 3910 ft 294 kts 82°
2026-05-04 15:32 53.41439 -5.94866 4816 ft 298 kts 81°
2026-05-04 15:33 53.41949 -5.87862 5741 ft 303 kts 81°
2026-05-04 15:34 53.42703 -5.77218 7116 ft 310 kts 82°
2026-05-04 15:34 53.42954 -5.73616 7598 ft 312 kts 82°
2026-05-04 15:34 53.43456 -5.66334 8552 ft 315 kts 82°
2026-05-04 15:35 53.43955 -5.58958 9522 ft 319 kts 82°
2026-05-04 15:35 53.44206 -5.55214 10009 ft 321 kts 82°
2026-05-04 15:35 53.44453 -5.51469 10503 ft 321 kts 82°
2026-05-04 15:36 53.44451 -5.43900 11482 ft 328 kts 91°
2026-05-04 15:36 53.44354 -5.40082 11989 ft 330 kts 91°
2026-05-04 15:36 53.44255 -5.36223 12493 ft 332 kts 91°
2026-05-04 15:37 53.44154 -5.32268 13018 ft 334 kts 91°
2026-05-04 15:37 53.44053 -5.28371 13530 ft 336 kts 91°
2026-05-04 15:37 53.43951 -5.24460 14054 ft 339 kts 92°
2026-05-04 15:37 53.43844 -5.20446 14591 ft 341 kts 91°
2026-05-04 15:38 53.43736 -5.16444 15126 ft 344 kts 91°
2026-05-04 15:38 53.43615 -5.12452 15668 ft 346 kts 92°
2026-05-04 15:38 53.43489 -5.08474 16204 ft 348 kts 91°
2026-05-04 15:38 53.43359 -5.04381 16758 ft 351 kts 91°
2026-05-04 15:39 53.43228 -5.00265 17317 ft 353 kts 91°
2026-05-04 15:39 53.43094 -4.96134 17883 ft 356 kts 91°
2026-05-04 15:39 53.42821 -4.87793 19017 ft 361 kts 91°
2026-05-04 15:40 53.42681 -4.83545 19620 ft 363 kts 91°
2026-05-04 15:40 53.42540 -4.79305 20210 ft 365 kts 91°
2026-05-04 15:40 53.42398 -4.75083 20807 ft 366 kts 91°
2026-05-04 15:40 53.42252 -4.70765 21403 ft 368 kts 91°
2026-05-04 15:41 53.42104 -4.66443 22035 ft 370 kts 91°
2026-05-04 15:41 53.41956 -4.62155 22658 ft 373 kts 91°
2026-05-04 15:41 53.41805 -4.57835 23290 ft 376 kts 91°
2026-05-04 15:41 53.41652 -4.53506 23943 ft 378 kts 91°
2026-05-04 15:42 53.41494 -4.49064 24624 ft 380 kts 91°
2026-05-04 15:42 53.41336 -4.44662 25292 ft 383 kts 91°
2026-05-04 15:42 53.41172 -4.40182 25980 ft 384 kts 91°
2026-05-04 15:42 53.41008 -4.35702 26664 ft 385 kts 91°
2026-05-04 15:43 53.40843 -4.31260 27338 ft 385 kts 91°
2026-05-04 15:43 53.40675 -4.26794 28018 ft 385 kts 91°
2026-05-04 15:43 53.40505 -4.22292 28693 ft 384 kts 91°
2026-05-04 15:43 53.40335 -4.17863 29349 ft 383 kts 91°
2026-05-04 15:44 53.40162 -4.13403 30002 ft 382 kts 91°
2026-05-04 15:44 53.39991 -4.09023 30636 ft 380 kts 91°
2026-05-04 15:44 53.39816 -4.04588 31257 ft 379 kts 91°
2026-05-04 15:44 53.39643 -4.00234 31847 ft 377 kts 91°
2026-05-04 15:45 53.39560 -3.95904 32418 ft 373 kts 85°
2026-05-04 15:45 53.39758 -3.91679 32944 ft 371 kts 83°
2026-05-04 15:45 53.39985 -3.87403 33472 ft 370 kts 83°
2026-05-04 15:45 53.40207 -3.83116 33975 ft 368 kts 83°
2026-05-04 15:46 53.40426 -3.78851 34456 ft 367 kts 83°
2026-05-04 15:46 53.40642 -3.74599 34905 ft 366 kts 83°
2026-05-04 15:46 53.40857 -3.70330 35255 ft 365 kts 83°
2026-05-04 15:46 53.41069 -3.66080 35577 ft 365 kts 83°
2026-05-04 15:47 53.41273 -3.61850 35742 ft 370 kts 84°
2026-05-04 15:47 53.41237 -3.57451 35745 ft 381 kts 92°
2026-05-04 15:47 53.41036 -3.53036 35821 ft 387 kts 92°
2026-05-04 15:48 53.40623 -3.43892 36038 ft 397 kts 92°
2026-05-04 15:48 53.40411 -3.39224 36162 ft 401 kts 92°
2026-05-04 15:48 53.39988 -3.30036 36369 ft 407 kts 93°
2026-05-04 15:49 53.39769 -3.25325 36488 ft 410 kts 93°
2026-05-04 15:49 53.39546 -3.20560 36642 ft 412 kts 93°
2026-05-04 15:49 53.39319 -3.15746 36810 ft 414 kts 93°
2026-05-04 15:49 53.39111 -3.10991 36987 ft 416 kts 92°
2026-05-04 15:50 53.38932 -3.06159 37140 ft 417 kts 92°
2026-05-04 15:50 53.38754 -3.01356 37318 ft 419 kts 92°
2026-05-04 15:50 53.38572 -2.96502 37458 ft 421 kts 92°
2026-05-04 15:50 53.38387 -2.91620 37627 ft 422 kts 92°
2026-05-04 15:51 53.38200 -2.86758 37748 ft 424 kts 92°
2026-05-04 15:51 53.38008 -2.81791 37879 ft 425 kts 92°
2026-05-04 15:51 53.37815 -2.76879 38034 ft 426 kts 92°
2026-05-04 15:51 53.37619 -2.71940 38161 ft 427 kts 92°
2026-05-04 15:52 53.37419 -2.66935 38339 ft 428 kts 92°
2026-05-04 15:52 53.37220 -2.62008 38442 ft 429 kts 93°
2026-05-04 15:52 53.37014 -2.56985 38612 ft 430 kts 92°
2026-05-04 15:52 53.36810 -2.52036 38729 ft 431 kts 93°
2026-05-04 15:53 53.36600 -2.47007 38839 ft 432 kts 93°
2026-05-04 15:53 53.36388 -2.41972 38965 ft 433 kts 93°
2026-05-04 15:53 53.35956 -2.31887 39018 ft 439 kts 94°
2026-05-04 15:54 53.35305 -2.21710 39011 ft 447 kts 99°
2026-05-04 15:54 53.34237 -2.11416 39001 ft 453 kts 99°
2026-05-04 15:55 53.33152 -2.00989 38999 ft 457 kts 99°
2026-05-04 15:55 53.32053 -1.90489 39007 ft 460 kts 100°
2026-05-04 15:56 53.30945 -1.79975 38996 ft 460 kts 100°
2026-05-04 15:56 53.29825 -1.69434 39021 ft 460 kts 100°
2026-05-04 15:57 53.28700 -1.58931 38994 ft 460 kts 99°
2026-05-04 15:57 53.27565 -1.48425 39001 ft 460 kts 99°
2026-05-04 15:58 53.26424 -1.37942 39024 ft 461 kts 99°
2026-05-04 15:58 53.25272 -1.27449 39018 ft 461 kts 101°
2026-05-04 15:59 53.24101 -1.16860 39022 ft 461 kts 101°
2026-05-04 15:59 53.22932 -1.06393 39033 ft 460 kts 101°
2026-05-04 16:00 53.21748 -0.95862 39025 ft 460 kts 101°
2026-05-04 16:00 53.20558 -0.85385 39026 ft 461 kts 101°
2026-05-04 16:01 53.19358 -0.74895 39031 ft 461 kts 101°
2026-05-04 16:01 53.18152 -0.64438 39044 ft 461 kts 101°
2026-05-04 16:02 53.16927 -0.53908 39032 ft 461 kts 101°
2026-05-04 16:03 53.15080 -0.38186 39039 ft 461 kts 101°
2026-05-04 16:03 53.13847 -0.27791 39032 ft 461 kts 102°
2026-05-04 16:04 53.12595 -0.17326 39025 ft 461 kts 102°
2026-05-04 16:04 53.10702 -0.01648 39025 ft 461 kts 102°
2026-05-04 16:05 53.09425 0.08819 39031 ft 459 kts 102°
2026-05-04 16:06 53.07499 0.24460 39026 ft 460 kts 102°
2026-05-04 16:07 53.04898 0.45294 39020 ft 463 kts 102°
2026-05-04 16:08 53.02255 0.66152 39024 ft 462 kts 103°
2026-05-04 16:09 52.98904 0.92150 39037 ft 461 kts 103°
2026-05-04 16:10 52.95129 1.12403 39024 ft 462 kts 111°
2026-05-04 16:11 52.90602 1.32284 39032 ft 462 kts 111°
2026-05-04 16:12 52.83772 1.61977 39026 ft 462 kts 111°
2026-05-04 16:13 52.79246 1.81441 39024 ft 463 kts 112°
2026-05-04 16:14 52.74605 2.01222 39021 ft 463 kts 112°
2026-05-04 16:16 52.68796 2.25736 39005 ft 464 kts 112°
2026-05-04 16:17 52.62859 2.50510 39002 ft 464 kts 112°
2026-05-04 16:18 52.58098 2.70176 39005 ft 464 kts 114°
2026-05-04 16:19 52.51728 2.94435 38989 ft 464 kts 117°
2026-05-04 16:20 52.44762 3.18284 39007 ft 463 kts 117°
2026-05-04 16:22 52.37775 3.41987 39008 ft 463 kts 117°
2026-05-04 16:23 52.29355 3.70251 38984 ft 464 kts 119°
2026-05-04 16:25 52.20908 3.98284 38978 ft 463 kts 119°
2026-05-04 16:26 52.11029 4.30657 38972 ft 463 kts 119°
2026-05-04 16:28 52.04032 4.53332 38971 ft 462 kts 119°
2026-05-04 16:29 51.93861 4.85915 38955 ft 461 kts 120°
2026-05-04 16:31 51.86669 5.08693 38948 ft 463 kts 120°
2026-05-04 16:32 51.77924 5.36110 38946 ft 462 kts 120°
2026-05-04 16:33 51.72055 5.54338 38951 ft 463 kts 120°
2026-05-04 16:34 51.67744 5.67646 38957 ft 464 kts 121°
2026-05-04 16:35 51.58858 5.94848 38952 ft 464 kts 121°
2026-05-04 16:36 51.54420 6.08321 38954 ft 463 kts 121°
2026-05-04 16:37 51.51530 6.17072 38959 ft 439 kts 122°
2026-05-04 16:37 51.50146 6.21329 38947 ft 434 kts 119°
2026-05-04 16:38 51.45791 6.38891 38953 ft 427 kts 115°
2026-05-04 16:39 51.42565 6.51991 38239 ft 434 kts 115°
2026-05-04 16:39 51.40363 6.60888 37143 ft 434 kts 116°
2026-05-04 16:40 51.38279 6.69271 36058 ft 439 kts 117°
2026-05-04 16:40 51.36009 6.78361 34873 ft 441 kts 118°
2026-05-04 16:41 51.33769 6.87309 33726 ft 433 kts 118°
2026-05-04 16:41 51.30480 7.00376 32068 ft 422 kts 117°
2026-05-04 16:42 51.26437 7.12083 30410 ft 400 kts 135°
2026-05-04 16:43 51.22519 7.17920 29271 ft 385 kts 149°
2026-05-04 16:43 51.18057 7.21980 28302 ft 370 kts 158°
2026-05-04 16:43 51.15773 7.23781 27832 ft 366 kts 158°
2026-05-04 16:44 51.06884 7.30955 25926 ft 359 kts 156°
2026-05-04 16:45 51.02524 7.34544 24985 ft 355 kts 156°
2026-05-04 16:46 50.96055 7.39867 23598 ft 350 kts 156°
2026-05-04 16:46 50.91767 7.43384 22661 ft 344 kts 155°
2026-05-04 16:47 50.88331 7.46196 21930 ft 341 kts 156°
2026-05-04 16:47 50.84295 7.49499 21064 ft 336 kts 155°
2026-05-04 16:48 50.78907 7.53891 19943 ft 340 kts 152°
2026-05-04 16:48 50.76780 7.55622 19486 ft 338 kts 152°
2026-05-04 16:49 50.72632 7.58993 18594 ft 334 kts 152°
2026-05-04 16:49 50.68512 7.62334 17711 ft 329 kts 152°
2026-05-04 16:50 50.64449 7.65624 16917 ft 324 kts 153°
2026-05-04 16:50 50.60437 7.68866 16129 ft 321 kts 153°
2026-05-04 16:51 50.56497 7.72043 15367 ft 317 kts 153°
2026-05-04 16:51 50.54530 7.73626 15019 ft 315 kts 153°
2026-05-04 16:51 50.50648 7.76748 14307 ft 313 kts 153°
2026-05-04 16:52 50.46801 7.79834 13596 ft 309 kts 153°
2026-05-04 16:52 50.44878 7.81375 13241 ft 308 kts 153°
2026-05-04 16:53 50.41354 7.85074 12601 ft 303 kts 141°
2026-05-04 16:53 50.36395 7.91259 11730 ft 301 kts 141°
2026-05-04 16:54 50.34772 7.93277 11438 ft 299 kts 141°
2026-05-04 16:55 50.35368 8.03587 10123 ft 289 kts 19°
2026-05-04 16:55 50.39182 8.05142 10001 ft 291 kts 33°
2026-05-04 16:56 50.41040 8.10469 10006 ft 292 kts 91°
2026-05-04 16:56 50.37378 8.17399 9996 ft 293 kts 151°